{"data":{"norad_id":47691,"intl_designator":"2021-014A","name":"YAOGAN-31 03A","alt_names":[],"object_type":"PAYLOAD","status":"ACTIVE","operator":null,"country":"PRC","launch_date":"2021-02-24","launch_site_code":"JSC","launch_vehicle":null,"mission":null,"orbit_class":"UNKNOWN","rcs_meters":null,"size_class":null,"mass_kg":null,"dimensions":null,"purposes":[],"wikipedia_slug":null,"has_3d_model":false,"image_url":null,"decayed_at":null,"tle_current":{"epoch":"2026-05-25T04:47:32.077248Z","epoch_age_seconds":68361,"freshness":"FRESH","line1":"1 47691U 21014A   26145.19967682 -.00000072  00000+0  27540-4 0  9992","line2":"2 47691  63.4040 256.9253 0175044   0.5895 359.5305 13.45448104257688","mean_motion":13.45448104,"eccentricity":0.0175044,"inclination_deg":63.404,"raan_deg":256.9253,"arg_perigee_deg":0.5895,"mean_anomaly_deg":359.5305,"bstar":2.754e-5,"rev_number":25768,"period_min":107.0275394286,"perigee_km":958.34441013565,"apogee_km":1219.7617746421,"semimajor_km":7467.1900923889,"source":"CELESTRAK","updated_at":"2026-05-25T13:37:56.514327Z"}}}